Stations météo

réclame
Mon MeteoGroup
Palma De Mallorca/Son San Ju, Espagne (8306): Température de l'air & dewpoint: 20.09.2018 11:00:00 - 26.09.2018 11:00:00 (CEST)Palma De Mallorca/Son San Ju, Espagne (8306): Vitesse du vent: 20.09.2018 11:00:00 - 26.09.2018 11:00:00 (CEST)Palma De Mallorca/Son San Ju, Espagne (8306): Direction du vent: 20.09.2018 11:00:00 - 26.09.2018 11:00:00 (CEST)Palma De Mallorca/Son San Ju, Espagne (8306): reduced air pressure: 20.09.2018 11:00:00 - 26.09.2018 11:00:00 (CEST)Palma De Mallorca/Son San Ju, Espagne (8306): visibility: 20.09.2018 11:00:00 - 26.09.2018 11:00:00 (CEST)
Date & Time tt [°C] td [°C] ff [km/h] ff [knt] dd ppp [hPa] vv [km]
26.09.2018 11:00:00 - - - - - - -
26.09.2018 10:00:00 24,8 14,9 24 13 ENE 1027,3 10
26.09.2018 09:00:00 22,9 16,9 15 8 ENE 1026,8 10
26.09.2018 08:00:00 21,3 16,7 18 10 NE 1026,3 10
26.09.2018 07:00:00 21,7 17,3 13 7 NE 1026,0 10
26.09.2018 06:00:00 22,5 17,4 15 8 ENE 1025,1 10
26.09.2018 05:00:00 22,7 17,2 15 8 ENE 1025,0 10
26.09.2018 04:00:00 22,6 17,7 15 8 NE 1024,8 10
26.09.2018 03:00:00 22,8 17,5 13 7 ENE 1025,1 10
26.09.2018 02:00:00 22,9 18,0 16 9 NE 1025,0 10
26.09.2018 01:00:00 22,8 18,6 9 5 NE 1025,0 10
26.09.2018 00:00:00 22,0 18,2 9 5 NE 1025,0 10
25.09.2018 23:00:00 23,0 18,7 15 8 NE 1024,8 10
25.09.2018 22:00:00 23,7 19,0 9 5 NE 1024,5 10
25.09.2018 21:00:00 23,6 18,7 11 6 NE 1023,9 10
25.09.2018 20:00:00 24,1 14,2 15 8 ENE 1023,2 10
25.09.2018 19:00:00 25,8 15,0 21 11 ENE 1022,7 10
25.09.2018 18:00:00 27,0 12,7 18 10 ENE 1022,3 10
25.09.2018 17:00:00 28,7 13,8 15 8 N 1022,3 30
25.09.2018 16:00:00 27,4 15,5 18 10 ENE 1022,5 10
25.09.2018 15:00:00 28,2 16,0 18 10 ENE 1023,0 10
25.09.2018 14:00:00 26,9 15,5 21 11 ENE 1023,7 30
25.09.2018 13:00:00 26,5 15,2 24 13 ENE 1024,1 10
25.09.2018 12:00:00 25,2 14,9 29 16 ENE 1024,3 10
25.09.2018 11:00:00 25,4 15,2 31 17 ENE 1024,1 10
25.09.2018 10:00:00 23,7 14,5 22 12 ENE 1023,7 10
25.09.2018 09:00:00 22,5 14,3 16 9 ENE 1023,5 10
25.09.2018 08:00:00 21,5 14,6 15 8 ENE 1023,2 10
25.09.2018 07:00:00 21,9 14,6 21 11 ENE 1022,9 10
25.09.2018 06:00:00 22,0 14,4 16 9 ENE 1022,6 10
25.09.2018 05:00:00 21,8 14,6 18 10 ENE 1022,6 10
25.09.2018 04:00:00 21,5 14,4 18 10 ENE 1022,8 10
25.09.2018 03:00:00 22,1 14,7 24 13 ENE 1022,8 10
25.09.2018 02:00:00 22,9 15,0 18 10 ENE 1023,1 10
25.09.2018 01:00:00 23,6 16,9 18 10 ENE 1023,3 10
25.09.2018 00:00:00 23,9 19,0 15 8 ENE 1022,9 10
24.09.2018 23:00:00 23,7 19,8 13 7 E 1022,7 28
24.09.2018 22:00:00 24,1 19,8 9 5 ENE 1022,0 10
24.09.2018 21:00:00 24,5 20,0 13 7 ENE 1021,4 10
24.09.2018 20:00:00 25,6 20,2 15 8 E 1020,9 30
24.09.2018 19:00:00 27,3 18,7 15 8 SW 1020,5 10
24.09.2018 18:00:00 28,2 18,1 16 9 SW 1020,3 10
24.09.2018 17:00:00 28,6 20,3 16 9 SSW 1020,3 10
24.09.2018 16:00:00 28,9 19,1 24 13 SW 1020,5 10
24.09.2018 15:00:00 29,0 19,8 24 13 WSW 1020,5 10
24.09.2018 14:00:00 29,5 21,1 15 8 SW 1021,2 10
24.09.2018 13:00:00 29,7 20,1 8 4 WSW 1021,6 10
24.09.2018 12:00:00 28,9 17,7 11 6 SW 1021,8 10
24.09.2018 11:00:00 28,3 15,7 4 2 - 1021,6 10
24.09.2018 10:00:00 25,3 16,7 5 3 ENE 1021,3 10
24.09.2018 09:00:00 21,6 16,5 9 5 NE 1021,1 10
24.09.2018 08:00:00 17,6 16,5 8 4 NE 1020,7 10
24.09.2018 07:00:00 17,2 16,2 2 1 N 1020,3 10
24.09.2018 06:00:00 17,3 15,5 4 2 - 1020,0 10
24.09.2018 05:00:00 17,8 14,5 2 1 NNE 1019,8 10
24.09.2018 04:00:00 18,5 17,2 0 0 N 1020,3 10
24.09.2018 03:00:00 18,6 16,6 5 3 NNE 1020,9 10
24.09.2018 02:00:00 19,0 16,8 2 1 N 1021,2 15
24.09.2018 01:00:00 20,2 17,0 4 2 E 1021,3 10
24.09.2018 00:00:00 20,8 16,7 0 0 N 1021,5 10
23.09.2018 23:00:00 21,7 17,3 0 0 N 1021,4 10
23.09.2018 22:00:00 22,4 18,6 4 2 - 1021,4 10
23.09.2018 21:00:00 24,7 19,3 5 3 SW 1021,0 10
23.09.2018 20:00:00 26,0 19,2 8 4 SW 1020,8 10
23.09.2018 19:00:00 27,3 18,7 11 6 SW 1020,7 10
23.09.2018 18:00:00 27,7 19,2 13 7 WSW 1020,8 10
23.09.2018 17:00:00 28,1 20,0 16 9 WSW 1021,1 10
23.09.2018 16:00:00 28,8 19,5 15 8 WSW 1021,5 10
23.09.2018 15:00:00 28,8 20,4 15 8 WSW 1021,9 10
23.09.2018 14:00:00 28,9 20,9 16 9 WSW 1022,5 10
23.09.2018 13:00:00 29,2 20,5 13 7 WSW 1022,7 10
23.09.2018 12:00:00 29,5 17,4 9 5 WSW 1023,1 10
23.09.2018 11:00:00 28,5 17,7 2 1 W 1023,0 30
23.09.2018 10:00:00 25,3 19,7 2 1 NW 1022,8 10
23.09.2018 09:00:00 20,9 19,0 2 1 - 1022,5 10
23.09.2018 08:00:00 17,9 17,3 8 4 N 1022,4 10
23.09.2018 07:00:00 17,9 17,1 5 3 E 1022,1 10
23.09.2018 06:00:00 18,1 16,6 2 1 - 1021,8 10
23.09.2018 05:00:00 18,8 18,3 2 1 - 1021,9 10
23.09.2018 04:00:00 19,0 18,2 4 2 NE 1022,0 10
23.09.2018 03:00:00 19,5 18,5 4 2 NE 1022,3 10
23.09.2018 02:00:00 20,4 19,4 5 3 ENE 1022,8 10
23.09.2018 01:00:00 21,1 19,4 0 0 N 1022,8 10
23.09.2018 00:00:00 21,4 19,5 4 2 - 1022,7 10
22.09.2018 23:00:00 22,6 20,5 4 2 NNW 1022,7 15
22.09.2018 22:00:00 24,4 20,9 4 2 SE 1022,7 10
22.09.2018 21:00:00 25,4 21,1 8 4 SW 1022,3 10
22.09.2018 20:00:00 25,9 21,0 15 8 WSW 1021,9 30
22.09.2018 19:00:00 27,0 20,8 15 8 SW 1021,4 10
22.09.2018 18:00:00 27,7 21,0 15 8 SW 1021,7 10
22.09.2018 17:00:00 28,1 21,1 22 12 SW 1021,8 30
22.09.2018 16:00:00 28,3 21,1 21 11 WSW 1021,9 10
22.09.2018 15:00:00 28,6 20,0 22 12 WSW 1022,1 10
22.09.2018 14:00:00 28,7 20,5 18 10 SW 1022,6 10
22.09.2018 13:00:00 28,5 19,8 15 8 SW 1023,0 10
22.09.2018 12:00:00 28,9 19,5 5 3 WNW 1023,0 10
22.09.2018 11:00:00 28,0 19,8 5 3 W 1022,9 10
22.09.2018 10:00:00 24,5 19,1 4 2 - 1022,8 10
22.09.2018 09:00:00 20,6 19,6 5 3 - 1022,3 10
22.09.2018 08:00:00 19,1 18,6 5 3 NNE 1022,0 10
22.09.2018 07:00:00 19,0 18,5 5 3 ENE 1021,3 10
22.09.2018 06:00:00 19,7 19,0 4 2 NE 1021,0 10
22.09.2018 05:00:00 20,0 20,0 0 0 N - 10
22.09.2018 04:00:00 20,6 19,9 2 1 N 1020,8 10
22.09.2018 03:00:00 20,8 19,8 5 3 NE 1020,9 10
22.09.2018 02:00:00 20,9 19,7 5 3 N 1020,8 10
22.09.2018 01:00:00 21,3 20,3 8 4 ENE 1020,6 10
22.09.2018 00:00:00 21,9 20,2 2 1 - 1020,3 10
21.09.2018 23:00:00 23,3 20,6 5 3 WSW 1019,8 10
21.09.2018 22:00:00 25,2 21,7 8 4 SW 1019,2 10
21.09.2018 21:00:00 25,7 20,9 8 4 SW 1018,7 10
21.09.2018 20:00:00 26,0 20,6 18 10 SW 1018,1 30
21.09.2018 19:00:00 27,0 20,3 16 9 SW 1017,7 10
21.09.2018 18:00:00 27,8 20,9 18 10 SSW 1017,2 10
21.09.2018 17:00:00 28,1 20,8 22 12 SW 1017,2 10
21.09.2018 16:00:00 28,9 21,2 22 12 SSW 1017,1 10
21.09.2018 15:00:00 29,1 19,8 22 12 SW 1017,5 10
21.09.2018 14:00:00 28,2 21,1 21 11 SW 1018,1 10
21.09.2018 13:00:00 28,4 21,1 18 10 SW 1018,3 10
21.09.2018 12:00:00 28,1 20,4 13 7 SW 1018,4 10
21.09.2018 11:00:00 26,8 19,7 11 6 WSW 1018,2 30
21.09.2018 10:00:00 24,3 18,2 2 1 - 1017,9 10
21.09.2018 09:00:00 20,2 18,5 0 0 N 1017,6 10
21.09.2018 08:00:00 17,3 16,5 2 1 - 1017,3 10
21.09.2018 07:00:00 17,0 16,4 5 3 NNE 1016,7 10
21.09.2018 06:00:00 17,6 17,1 4 2 - 1016,6 10
21.09.2018 05:00:00 17,6 17,1 5 3 NE 1016,6 10
21.09.2018 04:00:00 18,1 17,3 5 3 E 1017,0 10
21.09.2018 03:00:00 18,7 17,9 4 2 ENE 1017,2 10
21.09.2018 02:00:00 19,4 18,4 5 3 E 1017,5 18
21.09.2018 01:00:00 20,5 19,3 0 0 N 1017,7 10
21.09.2018 00:00:00 20,9 19,4 4 2 - 1018,0 10
20.09.2018 23:00:00 21,8 19,9 4 2 NE 1018,0 10
20.09.2018 22:00:00 22,6 19,9 0 0 N 1017,9 10
20.09.2018 21:00:00 24,0 20,1 5 3 ESE 1017,6 10
20.09.2018 20:00:00 26,0 20,1 11 6 SW 1017,4 30
20.09.2018 19:00:00 26,8 20,7 13 7 SSW 1017,7 10
20.09.2018 18:00:00 27,6 19,7 18 10 SW 1017,7 10
20.09.2018 17:00:00 28,2 18,7 22 12 SW 1018,1 30
20.09.2018 16:00:00 28,5 19,2 22 12 SW 1018,3 10
20.09.2018 15:00:00 28,6 19,0 21 11 SW 1018,6 10
20.09.2018 14:00:00 30,1 16,9 11 6 WSW 1019,0 10
20.09.2018 13:00:00 30,1 16,7 5 3 WNW 1019,5 10
20.09.2018 12:00:00 28,9 16,1 5 3 N 1020,0 10
20.09.2018 11:00:00 27,2 18,0 2 1 - 1020,2 10

tt = Température de l'air
td = dewpoint
ff = Vitesse du vent
dd = Direction du vent
ppp = reduced air pressure
vv = visibility

stations d'obs. à proximité